"2010-04-30 00:00:00",69580,10.01,340.1,5.394,1.233,7.741,102.1075,4.678,6.048,25.95,0,110,13.42,5.45,302.1
"2010-04-30 00:00:30",69581,10.77,343.4,3.272,0.672,8.97,102.101,4.661,6.091,25.82,0,110,13.42,5.43,305.4
"2010-04-30 00:01:00",69582,11.48,338.2,5.151,0.578,9.08,102.101,4.661,6.006,26.1,0,110,13.42,5.43,300.2
"2010-04-30 00:01:30",69583,11.44,336.7,6.563,1.274,7.634,102.101,4.661,6.002,25.82,0,110,13.42,5.43,298.7
"2010-04-30 00:02:00",69584,10.59,334.8,6.795,1.217,7.221,102.101,4.661,5.962,25.68,0,110,13.42,5.43,296.8
"2010-04-30 00:02:30",69585,10.04,335,6.713,1.148,8.36,102.101,4.661,5.991,25.43,0,110,13.42,5.43,297.0
"2010-04-30 00:03:00",69586,9.88,339.3,7.971,1.132,8.45,102.0982,4.654,5.974,25.45,0,110,13.42,5.42,301.3
"2010-04-30 00:03:30",69587,11.26,339.3,4.047,0.683,9.31,102.09,4.633,6.021,25.43,0,110,13.42,5.40,301.3
"2010-04-30 00:04:00",69588,11.29,339.5,4.08,0.886,9.13,102.0773,4.6,6.015,25.58,0,110,13.42,5.37,301.5
"2010-04-30 00:04:30",69589,11.12,338.3,6.53,0.814,9.16,102.0679,4.577,6.014,25.47,0,110,13.42,5.34,300.3
"2010-04-30 00:05:00",69590,10.37,334.8,6.122,1.132,8.08,102.0677,4.576,5.89,25.26,0,110,13.42,5.34,296.8
"2010-04-30 00:05:30",69591,10.43,338.4,8.14,1.107,7.039,102.0677,4.576,5.912,25.03,0,110,13.42,5.34,300.4
"2010-04-30 00:06:00",69592,10.86,336.7,6.701,1.092,8.11,102.0694,4.58,5.9,24.78,0,110,13.42,5.35,298.7
"2010-04-30 00:06:30",69593,10.83,336.3,6.236,0.762,9.53,102.0726,4.589,5.971,25.16,0,110,13.42,5.36,298.3
"2010-04-30 00:07:00",69594,10.37,335.9,4.219,0.666,9.64,102.0717,4.586,5.93,25.67,0,110,13.42,5.35,297.9
"2010-04-30 00:07:30",69595,10.13,335.5,4.564,0.872,9.44,102.0644,4.568,5.957,25.63,0,110,13.42,5.34,297.5
"2010-04-30 00:08:00",69596,9.61,330,5.93,1.232,8.24,102.0623,4.562,5.87,25.5,0,110,13.42,5.33,292.0
"2010-04-30 00:08:30",69597,8.51,325.7,6.798,1.087,6.477,102.0641,4.567,5.86,25.55,0,110,13.42,5.33,287.7
"2010-04-30 00:09:00",69598,8.9,332.4,6.22,1.185,7.99,102.0559,4.546,5.819,25.65,0,110,13.42,5.31,294.4
"2010-04-30 00:09:30",69599,8.97,335,6.331,1.091,8.01,102.058,4.551,5.821,25.59,0,110,13.43,5.32,297.0
"2010-04-30 00:10:00",69600,9.3,336.9,5.028,1.214,8.91,102.0603,4.557,5.918,25.31,0,110,13.43,5.33,298.9
"2010-04-30 00:10:30",69601,9.63,335.8,6.012,1.112,8.25,102.0632,4.565,5.817,25.04,0,110,13.44,5.33,297.8
"2010-04-30 00:11:00",69602,10.02,335.2,5.441,1.044,8.82,102.0658,4.571,5.863,25.13,0,110,13.44,5.34,297.2
"2010-04-30 00:11:30",69603,10.12,335.8,4.598,0.866,8.96,102.0661,4.572,5.883,25.24,0,109.9,13.44,5.34,297.8
"2010-04-30 00:12:00",69604,9.81,335.6,6.549,0.881,8.37,102.0619,4.561,5.821,25.39,0,109.9,13.44,5.33,297.6
"2010-04-30 00:12:30",69605,9.91,331.9,5.725,1.137,7.48,102.0579,4.551,5.81,25.7,0,109.9,13.44,5.32,293.9
"2010-04-30 00:13:00",69606,10.61,336.1,4.757,1.297,7.932,102.05,4.531,5.813,25.27,0,109.9,13.44,5.30,298.1
"2010-04-30 00:13:30",69607,11.12,335.3,6.793,1.093,8.56,102.0393,4.503,5.791,24.83,0,109.9,13.44,5.27,297.3
"2010-04-30 00:14:00",69608,10.88,336.6,5.786,0.987,8.6,102.0345,4.491,5.823,24.71,0,109.9,13.44,5.26,298.6
"2010-04-30 00:14:30",69609,10.5,336.5,4.27,0.911,9.22,102.0339,4.49,5.842,24.56,0,109.9,13.44,5.26,298.5
"2010-04-30 00:15:00",69610,11.3,339.2,3.497,0.649,9.38,102.0339,4.49,5.87,24.48,0,109.9,13.44,5.26,301.2
"2010-04-30 00:15:30",69611,11.05,337.4,4.489,0.625,9.16,102.0339,4.49,5.839,24.34,0,109.9,13.44,5.26,299.4
"2010-04-30 00:16:00",69612,10.8,339.7,2.368,1.016,8.34,102.0339,4.49,5.853,24.77,0,109.9,13.44,5.26,301.7
"2010-04-30 00:16:30",69613,10.65,338.6,5.666,1.142,7.41,102.0339,4.49,5.733,24.26,0,109.9,13.44,5.26,300.6
"2010-04-30 00:17:00",69614,9.58,333.7,6.218,1.196,7.023,102.0331,4.488,5.744,23.89,0,109.9,13.44,5.26,295.7
"2010-04-30 00:17:30",69615,8.99,331,5.207,1.209,7.536,102.0271,4.472,5.789,24.39,0,109.9,13.44,5.24,293.0
"2010-04-30 00:18:00",69616,8.98,333.6,5.702,1.184,8.41,102.0169,4.446,5.759,24.65,0,109.9,13.44,5.21,295.6
"2010-04-30 00:18:30",69617,10.09,336.9,4.823,1.052,8.9,102.0124,4.435,5.792,24.41,0,109.9,13.44,5.20,298.9
"2010-04-30 00:19:00",69618,10.26,335.5,5.54,1.052,8.36,102.0147,4.441,5.739,23.51,0,109.9,13.44,5.21,297.5
"2010-04-30 00:19:30",69619,10.04,338,5.427,1.201,8.79,102.0054,4.417,5.746,23.15,0,109.9,13.44,5.18,300.0
"2010-04-30 00:20:00",69620,9.72,333.8,6.848,1.241,8.08,102.002,4.408,5.711,23.31,0,109.9,13.45,5.18,295.8
"2010-04-30 00:20:30",69621,10.16,334.6,5.693,1.057,8.57,102.0029,4.411,5.802,23.41,0,109.9,13.45,5.18,296.6
"2010-04-30 00:21:00",69622,10.06,332.9,5.763,1.108,8.28,102.0058,4.418,5.707,22.38,0,109.9,13.44,5.19,294.9
"2010-04-30 00:21:30",69623,9.29,332.2,6.873,1.167,7.757,102.0069,4.421,5.688,22.17,0,109.9,13.44,5.19,294.2
"2010-04-30 00:22:00",69624,9.73,334.3,5.729,1.033,8.48,102.0086,4.425,5.711,21.9,0,109.9,13.44,5.19,296.3
"2010-04-30 00:22:30",69625,9.26,334.6,7.127,1.157,7.693,102.0098,4.428,5.655,21.55,0,109.9,13.44,5.20,296.6
"2010-04-30 00:23:00",69626,9.45,337.5,6.126,1.02,8.22,102.011,4.431,5.698,21.37,0,109.9,13.44,5.20,299.5
"2010-04-30 00:23:30",69627,9.32,336.1,4.806,1.039,8.47,102.0136,4.438,5.751,21.5,0,109.9,13.44,5.21,298.1
"2010-04-30 00:24:00",69628,8.91,335.9,6.42,1.203,7.806,102.0136,4.438,5.718,21.29,0,109.8,13.44,5.21,297.9
"2010-04-30 00:24:30",69629,8.31,334.7,5.953,1.218,6.915,102.0111,4.432,5.655,20.99,0,109.9,13.44,5.20,296.7
"2010-04-30 00:25:00",69630,8.65,334.2,7.035,1.163,7.041,102.012,4.434,5.584,21.07,0,109.9,13.44,5.20,296.2
"2010-04-30 00:25:30",69631,8.94,335.5,5.012,1.047,8.29,102.0081,4.424,5.709,21.47,0,109.9,13.44,5.19,297.5
"2010-04-30 00:26:00",69632,8.52,331.8,7.135,1.202,7.526,102.0129,4.436,5.623,21.6,0,109.9,13.45,5.20,293.8
"2010-04-30 00:26:30",69633,9.2,336.2,3.585,0.791,8.96,102.0107,4.431,5.765,21.85,0,110,13.45,5.20,298.2
"2010-04-30 00:27:00",69634,8.24,334.2,6.101,1.011,8.08,102.0088,4.426,5.686,21.58,0,109.9,13.45,5.19,296.2
"2010-04-30 00:27:30",69635,7.103,334.7,6.771,1.161,7.061,102.0079,4.423,5.693,21.41,0,109.9,13.45,5.19,296.7
"2010-04-30 00:28:00",69636,7.015,342.9,4.109,1.304,5.953,102.0017,4.408,5.511,21.1,0,109.9,13.45,5.17,304.9
"2010-04-30 00:28:30",69637,8,346.8,5.853,1.349,8.27,102.0009,4.406,5.658,21.27,0,109.9,13.45,5.17,308.8
"2010-04-30 00:29:00",69638,7.857,343.2,7.524,1.259,7.677,102.0021,4.409,5.68,21.42,0,109.9,13.45,5.18,305.2
"2010-04-30 00:29:30",69639,8.5,350.3,5.831,1.02,8.72,102.0021,4.409,5.718,21.49,0,109.9,13.46,5.18,312.3
"2010-04-30 00:30:00",69640,8.53,342.1,6.366,1.185,7.862,102.0004,4.404,5.701,21.37,0,109.9,13.46,5.17,304.1
"2010-04-30 00:30:30",69641,8.13,344,5.663,1.272,7.56,102.0007,4.405,5.681,21.17,0,109.9,13.46,5.17,306.0
"2010-04-30 00:31:00",69642,7.489,337.7,6.935,1.204,6.372,102.0007,4.405,5.484,21.02,0,109.9,13.46,5.17,299.7
"2010-04-30 00:31:30",69643,7.281,336.1,5.74,1.184,6.864,102.0007,4.405,5.717,21.64,0,109.9,13.46,5.17,298.1
"2010-04-30 00:32:00",69644,7.526,346.5,6.954,1.32,8.16,102.0007,4.405,5.71,22.01,0,109.9,13.46,5.17,308.5
"2010-04-30 00:32:30",69645,8.1,344.5,4.67,0.886,8.87,102.0007,4.405,5.734,22.18,0,109.9,13.46,5.17,306.5
"2010-04-30 00:33:00",69646,7.267,342.3,6.623,1.09,7.624,102.0007,4.405,5.652,22.28,0,109.9,13.46,5.17,304.3
"2010-04-30 00:33:30",69647,7.875,343.6,5.837,1.069,7.709,102.0007,4.405,5.673,22.68,0,109.9,13.46,5.17,305.6
"2010-04-30 00:34:00",69648,5.986,335.3,4.665,0.86,5.403,102.0007,4.405,5.59,22.98,0,109.9,13.46,5.17,297.3
"2010-04-30 00:34:30",69649,6.433,334.3,5.322,1.234,5.938,102.0007,4.405,5.554,22.69,0,109.9,13.46,5.17,296.3
"2010-04-30 00:35:00",69650,6.649,340.1,6.426,1.098,8.2,102.0007,4.405,5.697,22.71,0,109.9,13.46,5.17,302.1
"2010-04-30 00:35:30",69651,7.18,343.5,6.917,1.09,8.19,102.0007,4.405,5.666,22.34,0,109.9,13.46,5.17,305.5
"2010-04-30 00:36:00",69652,7.034,344,5.49,1.311,6.722,102.0007,4.405,5.627,22.14,0,109.9,13.46,5.17,306.0
"2010-04-30 00:36:30",69653,7.234,343,6.224,1.167,6.994,102.0007,4.405,5.65,22.2,0,109.9,13.46,5.17,305.0
"2010-04-30 00:37:00",69654,6.252,342.3,6.254,1.219,5.773,102.0007,4.405,5.514,22.12,0,109.9,13.46,5.17,304.3
"2010-04-30 00:37:30",69655,6.259,342.4,6.104,1.065,5.275,102.0007,4.405,5.627,22.2,0,109.9,13.46,5.17,304.4
"2010-04-30 00:38:00",69656,6.971,347.4,6.888,1.217,7.457,102.0007,4.405,5.653,22.16,0,109.9,13.46,5.17,309.4
"2010-04-30 00:38:30",69657,6.599,341.9,6.675,1.194,7.404,102.001,4.406,5.719,22.33,0,109.9,13.46,5.17,303.9
"2010-04-30 00:39:00",69658,7.248,343.8,6.096,1.198,7.234,102.0072,4.422,5.598,21.97,0,109.9,13.46,5.19,305.8
"2010-04-30 00:39:30",69659,6.698,343.3,7.248,1.197,7.412,102.0236,4.463,5.716,21.55,0,109.9,13.46,5.23,305.3
"2010-04-30 00:40:00",69660,6.844,342,7.004,1.051,6.733,102.0343,4.491,5.708,21.29,0,109.9,13.46,5.26,304.0
"2010-04-30 00:40:30",69661,6.776,338.2,6.37,1.37,5.688,102.0346,4.492,5.507,21.18,0,109.9,13.46,5.26,300.2
"2010-04-30 00:41:00",69662,7.031,342.8,6.906,1.261,7.419,102.04,4.505,5.762,21.42,0,109.9,13.46,5.27,304.8
"2010-04-30 00:41:30",69663,6.432,335.9,7.126,1.239,6.167,102.0473,4.524,5.614,20.96,0,109.9,13.46,5.29,297.9
"2010-04-30 00:42:00",69664,6.587,346.5,6.347,1.215,6.363,102.0634,4.565,5.838,21.3,0,109.9,13.46,5.33,308.5
"2010-04-30 00:42:30",69665,6.93,357,6.258,1.109,7.704,102.0685,4.578,5.798,22.29,0,109.9,13.46,5.35,319.0
"2010-04-30 00:43:00",69666,6.533,352.1,6.98,1.465,6.211,102.0702,4.582,5.735,22.74,0,109.9,13.46,5.35,314.1
"2010-04-30 00:43:30",69667,5.918,348,4.788,1.139,4.842,102.0886,4.629,5.665,21.93,0,109.9,13.46,5.40,310.0
"2010-04-30 00:44:00",69668,6.661,349.6,7.268,1.11,7.304,102.1016,4.663,5.887,21.67,0,109.9,13.46,5.43,311.6
"2010-04-30 00:44:30",69669,6.745,342.7,7.738,1.269,6.875,102.1035,4.668,5.774,21.31,0,109.9,13.46,5.44,304.7
"2010-04-30 00:45:00",69670,7.137,341.8,6.274,1.25,7.251,102.1182,4.705,5.889,21.27,0,109.9,13.46,5.47,303.8
"2010-04-30 00:45:30",69671,6.7,338.4,7.341,1.205,7.417,102.1326,4.742,5.936,21.62,0,109.9,13.46,5.51,300.4
"2010-04-30 00:46:00",69672,5.486,333.8,6.369,1.282,5.982,102.1363,4.751,5.808,21.5,0,109.9,13.46,5.52,295.8
"2010-04-30 00:46:30",69673,4.386,335.1,5.236,1.066,4.397,102.1408,4.763,5.838,21.32,0,109.9,13.46,5.53,297.1
"2010-04-30 00:47:00",69674,6.445,344.7,6.042,1.28,6.735,102.1646,4.823,5.902,21.18,0,109.9,13.46,5.59,306.7
"2010-04-30 00:47:30",69675,5.313,336.3,4.267,0.884,4.973,102.1699,4.837,5.93,21.2,0,109.9,13.46,5.61,298.3
"2010-04-30 00:48:00",69676,7.425,343.9,5.127,1.21,8.1,102.1694,4.836,6.043,21.27,0,109.9,13.46,5.60,305.9
"2010-04-30 00:48:30",69677,7.985,336.3,6.212,1.027,7.784,102.1914,4.892,6.007,21.23,0,109.9,13.46,5.66,298.3
"2010-04-30 00:49:00",69678,7.268,337.5,6.21,1.215,7.786,102.1966,4.905,6.103,21.07,0,109.9,13.46,5.67,299.5
"2010-04-30 00:49:30",69679,6.615,335.6,6.029,1.228,6.982,102.1977,4.908,6.101,21.02,0,109.9,13.46,5.68,297.6
"2010-04-30 00:50:00",69680,4.922,326.2,5.731,1.265,4.681,102.2163,4.955,5.896,21.02,0,109.9,13.46,5.72,288.2
"2010-04-30 00:50:30",69681,5.324,323.2,7.9,1.28,4.945,102.2222,4.971,5.975,21.17,0,109.9,13.46,5.74,285.2
"2010-04-30 00:51:00",69682,5.925,324.9,6.626,1.193,7.21,102.2181,4.96,6.21,21.29,0,109.9,13.46,5.73,286.9
"2010-04-30 00:51:30",69683,5.841,331,5.546,1.242,7.605,102.2296,4.99,6.148,21.49,0,109.9,13.46,5.76,293.0
"2010-04-30 00:52:00",69684,5.742,327,5.698,1.351,6.7,102.2437,5.026,6.203,21.75,0,109.9,13.46,5.80,289.0
"2010-04-30 00:52:30",69685,5.608,328.1,6.481,1.248,6.431,102.2413,5.019,6.287,22,0,109.9,13.46,5.79,290.1
"2010-04-30 00:53:00",69686,5.658,323.3,7.05,1.341,5.436,102.2396,5.015,6.079,21.78,0,110,13.45,5.78,285.3
"2010-04-30 00:53:30",69687,4.945,317,3.736,0.948,5.356,102.2576,5.061,6.215,22.14,0,110,13.45,5.83,279.0
"2010-04-30 00:54:00",69688,6.274,322.7,6.264,1.078,7.957,102.2706,5.094,6.291,24.54,0,110,13.45,5.86,284.7
"2010-04-30 00:54:30",69689,5.857,318.3,6.309,1.262,7.211,102.2712,5.096,6.298,24.4,0,110,13.45,5.87,280.3
"2010-04-30 00:55:00",69690,5.535,320,6.308,1.27,7.499,102.2751,5.106,6.398,23.88,0,110,13.45,5.88,282.0
"2010-04-30 00:55:30",69691,5.953,321.2,7.021,1.164,6.654,102.291,5.146,6.355,24.28,0,110,13.45,5.92,283.2
"2010-04-30 00:56:00",69692,6.085,314.7,7.05,1.382,5.998,102.3034,5.178,6.254,23.16,0,110,13.45,5.95,276.7
"2010-04-30 00:56:30",69693,5.025,310.3,3.914,0.792,4.318,102.3051,5.182,6.173,22.22,0,110,13.44,5.95,272.3
"2010-04-30 00:57:00",69694,6.191,314.9,6.131,1.257,7.579,102.3051,5.182,6.359,22.1,0,110,13.44,5.95,276.9
"2010-04-30 00:57:30",69695,6.15,313.4,6.295,1.173,7.897,102.309,5.192,6.472,22.02,0,110,13.44,5.96,275.4
"2010-04-30 00:58:00",69696,6.22,312.4,5.694,0.809,8.2,102.3223,5.226,6.433,21.68,0,110,13.44,6.00,274.4
"2010-04-30 00:58:30",69697,5.161,308.4,6.573,1.235,6.648,102.3325,5.252,6.483,21.85,0,110,13.44,6.02,270.4
"2010-04-30 00:59:00",69698,4.171,300.2,3.986,0.641,4.32,102.339,5.269,6.386,22.32,0,110,13.44,6.04,262.2
"2010-04-30 00:59:30",69699,4.115,302,0.802,0.086,3.951,102.339,5.269,6.35,22.47,0,110,13.48,6.04,264.0
"2010-04-30 01:00:00",69700,6.075,312.1,5.049,1.089,7.47,102.339,5.269,6.419,22.19,0,110,13.44,6.04,274.1
"2010-04-30 01:00:30",69701,5.71,313.1,6.429,1.211,7.819,102.339,5.269,6.519,21.95,0,110,13.44,6.04,275.1
"2010-04-30 01:01:00",69702,5.927,311.7,6.274,1.053,7.868,102.339,5.269,6.555,22.03,0,110,13.44,6.04,273.7
"2010-04-30 01:01:30",69703,6.085,313.6,5.496,0.995,7.603,102.339,5.269,6.515,21.92,0,110,13.44,6.04,275.6
"2010-04-30 01:02:00",69704,4.536,305.2,5.749,0.982,5.392,102.339,5.269,6.499,21.75,0,110,13.44,6.04,267.2
"2010-04-30 01:02:30",69705,4.178,302.9,0.878,0.174,3.752,102.3398,5.271,6.296,21.52,0,110,13.48,6.04,264.9
"2010-04-30 01:03:00",69706,5.894,312.2,6.802,1.215,7.203,102.3409,5.274,6.497,21.82,0,110,13.44,6.04,274.2
"2010-04-30 01:03:30",69707,5.412,311.7,6.787,1.206,7.354,102.3426,5.278,6.547,21.75,0,110,13.44,6.05,273.7
"2010-04-30 01:04:00",69708,5.313,312,5.668,1.267,7.383,102.3468,5.289,6.494,21.5,0,110,13.44,6.06,274.0
"2010-04-30 01:04:30",69709,5.814,309.6,5.325,1.153,7.352,102.3442,5.282,6.499,21.06,0,110,13.44,6.05,271.6
"2010-04-30 01:05:00",69710,5.009,300.3,7.496,1.342,6.558,102.3461,5.287,6.544,21.31,0,110,13.44,6.06,262.3
"2010-04-30 01:05:30",69711,3.482,293.5,2.384,0.297,3.643,102.3438,5.281,6.309,22.45,0,110,13.47,6.05,255.5
"2010-04-30 01:06:00",69712,4.218,298.6,3.487,0.171,3.85,102.3449,5.284,6.322,22.55,0,110,13.47,6.05,260.6
"2010-04-30 01:06:30",69713,5.819,314.8,6.66,1.116,7.441,102.3423,5.277,6.571,21.79,0,110,13.44,6.05,276.8
"2010-04-30 01:07:00",69714,5.75,320.2,5.624,1.182,7.361,102.3453,5.285,6.541,21.61,0,110,13.44,6.06,282.2
"2010-04-30 01:07:30",69715,5.436,321.1,6.952,1.306,7.543,102.3444,5.283,6.58,21.97,0,110,13.44,6.05,283.1
"2010-04-30 01:08:00",69716,5.486,313.8,7.389,1.287,6.491,102.3472,5.29,6.543,22.25,0,110,13.44,6.06,275.8
"2010-04-30 01:08:30",69717,4.251,310.9,4.645,0.864,4.424,102.3457,5.286,6.442,22.58,0,110,13.44,6.06,272.9
"2010-04-30 01:09:00",69718,3.32,309.3,3.463,0.119,3.83,102.344,5.282,6.336,22.69,0,110,13.47,6.05,271.3
"2010-04-30 01:09:30",69719,5.861,311.3,7.372,1.202,7.562,102.3446,5.283,6.534,23.21,0,110,13.44,6.05,273.3
"2010-04-30 01:10:00",69720,6.553,310.3,5.618,1.262,8.23,102.3431,5.279,6.535,23.27,0,110,13.43,6.05,272.3
"2010-04-30 01:10:30",69721,6.541,314.4,7.996,1.324,7.2,102.3422,5.277,6.646,22.73,0,110,13.43,6.05,276.4
"2010-04-30 01:11:00",69722,6.644,318.7,8.37,1.292,7.576,102.3408,5.273,6.607,22.35,0,110,13.43,6.04,280.7
"2010-04-30 01:11:30",69723,6.62,319.2,9.52,1.222,7.441,102.3396,5.271,6.539,22.01,0,110,13.43,6.04,281.2
"2010-04-30 01:12:00",69724,4.747,314.8,1.676,0.165,4.132,102.3393,5.27,6.353,22.38,0,110,13.46,6.04,276.8
"2010-04-30 01:12:30",69725,5.902,319.2,6.226,1.246,6.398,102.3388,5.268,6.522,22.91,0,110,13.43,6.04,281.2
"2010-04-30 01:13:00",69726,6.391,322.4,6.053,1.22,8.26,102.3385,5.268,6.6,22.64,0,110,13.43,6.04,284.4
"2010-04-30 01:13:30",69727,7.152,324.9,4.519,0.666,8.96,102.3393,5.27,6.627,22.64,0,110,13.43,6.04,286.9
"2010-04-30 01:14:00",69728,5.973,321,5.989,1.28,7.068,102.3388,5.268,6.606,22.31,0,110,13.43,6.04,283.0
"2010-04-30 01:14:30",69729,6.912,326.7,7.119,1.142,7.274,102.3379,5.266,6.482,20.6,0,110,13.43,6.04,288.7
"2010-04-30 01:15:00",69730,5.022,322.9,3.33,0.197,4.479,102.3323,5.252,6.346,18.93,0,110,13.46,6.02,284.9
"2010-04-30 01:15:30",69731,5.642,316.4,6.673,1.086,7.066,102.3275,5.239,6.574,18.56,0,110,13.43,6.01,278.4
"2010-04-30 01:16:00",69732,5.852,310.6,6.529,1.272,8.27,102.3227,5.227,6.571,19.17,0,110,13.43,6.00,272.6
"2010-04-30 01:16:30",69733,6.011,317.8,6.365,1.22,7.141,102.3204,5.221,6.573,19.55,0,110,13.43,5.99,279.8
"2010-04-30 01:17:00",69734,6.973,321.3,6.191,1.009,7.742,102.3213,5.224,6.577,19.73,0,110,13.43,5.99,283.3
"2010-04-30 01:17:30",69735,6.361,317.9,7.094,1.165,6.322,102.3207,5.222,6.573,19.89,0,110,13.43,5.99,279.9
"2010-04-30 01:18:00",69736,7.038,319.2,6.331,1.365,6.332,102.3204,5.221,6.353,20.38,0,110,13.43,5.99,281.2
"2010-04-30 01:18:30",69737,7.369,322.4,7.059,1.198,7.816,102.3221,5.226,6.509,21.04,0,110,13.43,6.00,284.4
"2010-04-30 01:19:00",69738,8.42,324,6.906,1.362,8.83,102.3193,5.219,6.589,20.52,0,110,13.43,5.99,286.0
"2010-04-30 01:19:30",69739,8.49,327,5.796,0.741,9.17,102.3184,5.216,6.617,19.14,0,110,13.43,5.99,289.0
"2010-04-30 01:20:00",69740,6.901,321.2,6.849,1.397,8.09,102.3153,5.208,6.552,18.51,0,110,13.43,5.98,283.2
"2010-04-30 01:20:30",69741,6.298,320.5,6.915,1.291,6.213,102.3063,5.185,6.522,18.42,0,110,13.43,5.96,282.5
"2010-04-30 01:21:00",69742,5.979,312,4.727,0.357,4.69,102.3046,5.181,6.325,17.84,0,110,13.46,5.95,274.0
"2010-04-30 01:21:30",69743,8.42,322.5,6.4,1.647,8.38,102.3049,5.182,6.544,17.99,0,110,13.43,5.95,284.5
"2010-04-30 01:22:00",69744,10.73,327.7,5.701,1.027,9.24,102.3046,5.181,6.56,18.35,0,110,13.43,5.95,289.7
"2010-04-30 01:22:30",69745,11.53,328.7,3.099,0.863,9.65,102.2936,5.153,6.588,18.49,0,110,13.43,5.92,290.7
"2010-04-30 01:23:00",69746,10.85,328.8,4.623,0.415,9.51,102.2772,5.111,6.576,18.8,0,110,13.43,5.88,290.8
"2010-04-30 01:23:30",69747,10.51,332.3,3.413,0.841,9.24,102.2713,5.096,6.569,19.18,0,110,13.43,5.87,294.3
"2010-04-30 01:24:00",69748,10.28,336.6,3.764,0.706,9.21,102.2707,5.094,6.547,19.25,0,110,13.43,5.86,298.6
"2010-04-30 01:24:30",69749,9.41,332.3,7.016,0.807,8.72,102.2696,5.092,6.52,19.28,0,110,13.43,5.86,294.3
"2010-04-30 01:25:00",69750,8.64,318.4,5.701,0.895,8.66,102.2515,5.045,6.494,18.35,0,110,13.43,5.82,280.4
"2010-04-30 01:25:30",69751,6.329,295.4,10.02,1.205,6.063,102.2388,5.013,6.31,17.81,0,110,13.43,5.78,257.4
"2010-04-30 01:26:00",69752,4.44,291,7.419,0.318,3.795,102.24,5.016,6.17,17.88,0,110,13.46,5.79,253.0
"2010-04-30 01:26:30",69753,4.816,302.7,4.903,0.621,4.085,102.2326,4.997,6.164,17.83,0,110,13.46,5.77,264.7
"2010-04-30 01:27:00",69754,8.73,324.1,5.473,1.312,9.09,102.2089,4.937,6.322,18.27,0,110,13.43,5.71,286.1
"2010-04-30 01:27:30",69755,8.95,324.8,2.937,0.901,10.04,102.2084,4.935,6.388,18.48,0,110.1,13.42,5.70,286.8
"2010-04-30 01:28:00",69756,7.572,325.2,8.47,0.896,10.17,102.2102,4.94,6.385,18.44,0,110,13.42,5.71,287.2
"2010-04-30 01:28:30",69757,7.764,330.4,5.67,0.702,9.42,102.2122,4.945,6.355,18.53,0,109.9,13.42,5.71,292.4
"2010-04-30 01:29:00",69758,7.237,325.8,4.495,1.227,7.402,102.2104,4.941,6.238,18.44,0,110,13.42,5.71,287.8
"2010-04-30 01:29:30",69759,5.96,314.8,3.725,0.328,4.371,102.2104,4.941,6.038,18.2,0,110,13.45,5.71,276.8
"2010-04-30 01:30:00",69760,6.316,326.1,13.06,1.106,6.617,102.2116,4.943,6.155,18.18,0,110,13.42,5.71,288.1
"2010-04-30 01:30:30",69761,5.641,319,7.984,1.052,6.291,102.2127,4.946,6.205,18.69,0,110,13.42,5.72,281.0
"2010-04-30 01:31:00",69762,7.064,328,4.86,0.641,10.05,102.2151,4.952,6.336,19.08,0,110,13.42,5.72,290.0
"2010-04-30 01:31:30",69763,7.071,318.5,6.574,0.723,10,102.2117,4.944,6.319,18.52,0,110,13.43,5.71,280.5
"2010-04-30 01:32:00",69764,4.678,315.3,6.192,1.364,7.504,102.2055,4.928,6.194,18.37,0,110,13.43,5.70,277.3
"2010-04-30 01:32:30",69765,4.168,312.8,4.241,1.345,4.852,102.2047,4.926,5.988,18.3,0,110,13.43,5.70,274.8
"2010-04-30 01:33:00",69766,5.828,310.7,5.969,1.007,5.4,102.203,4.922,6.103,18.62,0,110,13.43,5.69,272.7
"2010-04-30 01:33:30",69767,6.475,309.3,6.802,1.127,6.013,102.2011,4.917,6.045,18.73,0,110,13.44,5.69,271.3
"2010-04-30 01:34:00",69768,7.976,318.9,4.246,1.019,9.59,102.1958,4.903,6.293,18.96,0,110,13.44,5.67,280.9
"2010-04-30 01:34:30",69769,7.398,328.4,4.561,0.738,9.74,102.193,4.896,6.283,19.05,0,110,13.44,5.67,290.4
"2010-04-30 01:35:00",69770,7.694,324.5,6.634,0.977,8.94,102.1941,4.899,6.247,19.21,0,110,13.44,5.67,286.5
"2010-04-30 01:35:30",69771,6.061,310.8,3.111,0.46,5.031,102.1973,4.907,6.067,19.18,0,110,13.47,5.68,272.8
"2010-04-30 01:36:00",69772,6.492,315.3,4.117,1.182,6.123,102.1991,4.912,5.997,19.02,0,110,13.44,5.68,277.3
"2010-04-30 01:36:30",69773,6.975,321.7,6.468,1.214,7.312,102.1993,4.912,6.057,19.2,0,110,13.44,5.68,283.7
"2010-04-30 01:37:00",69774,7.638,327,5.621,1.052,9.23,102.1957,4.903,6.159,19.67,0,110,13.44,5.67,289.0
"2010-04-30 01:37:30",69775,7.823,325.7,4.683,1.011,9.56,102.1929,4.896,6.215,19.81,0,110,13.44,5.66,287.7
"2010-04-30 01:38:00",69776,8.29,326.1,5.413,0.822,9.24,102.1878,4.883,6.184,19.85,0,110,13.44,5.65,288.1
"2010-04-30 01:38:30",69777,8.16,329.9,6.328,0.855,9.64,102.174,4.848,6.208,20.01,0,110,13.44,5.62,291.9
"2010-04-30 01:39:00",69778,7.765,330.5,7.731,1.194,7.665,102.1695,4.836,6.012,19.85,0,110,13.44,5.60,292.5
"2010-04-30 01:39:30",69779,6.936,323.3,4.455,0.776,5.259,102.1695,4.836,5.975,19.68,0,110,13.44,5.60,285.3
"2010-04-30 01:40:00",69780,7.085,329.1,7.179,1.242,7.189,102.1636,4.821,6.01,19.52,0,110,13.44,5.59,291.1
"2010-04-30 01:40:30",69781,8.17,337.2,5.678,0.957,9.04,102.139,4.758,6.133,19.61,0,110,13.44,5.53,299.2
"2010-04-30 01:41:00",69782,8.26,337.1,3.768,0.72,9.68,102.1356,4.749,6.171,19.42,0,110,13.44,5.52,299.1
"2010-04-30 01:41:30",69783,7.958,335,5.937,1.135,8.8,102.1356,4.749,6.094,19.4,0,109.9,13.44,5.52,297.0
"2010-04-30 01:42:00",69784,8.36,332.7,5.166,1.15,8.05,102.1336,4.744,6.01,19.42,0,110,13.44,5.51,294.7
"2010-04-30 01:42:30",69785,6.728,325.9,2.667,0.679,4.857,102.1152,4.697,5.882,19.38,0,110,13.44,5.47,287.9
"2010-04-30 01:43:00",69786,8.47,333.8,6.128,1.259,7.496,102.1017,4.663,5.997,19.68,0,110,13.44,5.43,295.8
"2010-04-30 01:43:30",69787,8.78,331.1,6.398,1.195,8.95,102.1017,4.663,6.009,19.8,0,109.9,13.44,5.43,293.1
"2010-04-30 01:44:00",69788,8.91,328,3.804,0.55,9.87,102.0941,4.643,6.078,19.68,0,109.9,13.44,5.41,290.0
"2010-04-30 01:44:30",69789,8.24,324,5.381,1.061,8.9,102.0805,4.609,6.022,19.41,0,109.9,13.44,5.38,286.0
"2010-04-30 01:45:00",69790,8.09,325.2,5.572,1.13,8.58,102.0684,4.578,5.942,19.33,0,109.9,13.44,5.35,287.2
"2010-04-30 01:45:30",69791,7.542,320.6,6.542,1.269,6.174,102.0675,4.576,5.706,19.46,0,109.9,13.44,5.34,282.6
"2010-04-30 01:46:00",69792,8.07,322.4,6.122,1.333,7.625,102.0589,4.553,5.889,19.74,0,109.9,13.44,5.32,284.4
"2010-04-30 01:46:30",69793,9.06,321.8,6.035,1.12,8.73,102.0437,4.515,5.901,19.88,0,109.9,13.44,5.28,283.8
"2010-04-30 01:47:00",69794,9.76,323.6,3.103,0.75,9.65,102.0446,4.517,5.947,20.12,0,109.9,13.44,5.28,285.6
"2010-04-30 01:47:30",69795,9.58,321.3,5.176,1.03,8.68,102.0478,4.525,5.899,20.43,0,109.9,13.45,5.29,283.3
"2010-04-30 01:48:00",69796,9.85,322.4,6.3,1.226,8.47,102.0394,4.504,5.855,20.72,0,109.9,13.45,5.27,284.4
"2010-04-30 01:48:30",69797,10.14,328.3,5.044,1.403,8.28,102.0318,4.484,5.824,21.07,0,109.9,13.45,5.25,290.3
"2010-04-30 01:49:00",69798,10.12,326.2,7.305,1.161,8.34,102.0291,4.478,5.813,21.62,0,109.9,13.45,5.25,288.2
"2010-04-30 01:49:30",69799,10.02,323.5,5.918,1.103,8.4,102.0308,4.482,5.858,21.58,0,109.9,13.45,5.25,285.5
"2010-04-30 01:50:00",69800,10.5,327.9,7.194,1.246,8.42,102.0233,4.463,5.781,21.58,0,109.9,13.45,5.23,289.9
"2010-04-30 01:50:30",69801,12.67,336.8,3.984,0.835,9.44,102.0046,4.415,5.825,20.99,0,109.9,13.45,5.18,298.8
"2010-04-30 01:51:00",69802,11.72,333.2,6.161,0.667,9.53,102.0007,4.405,5.818,20.96,0,109.9,13.45,5.17,295.2
"2010-04-30 01:51:30",69803,11.95,327.3,6.125,0.952,8.86,101.9925,4.384,5.787,21.23,0,109.9,13.45,5.15,289.3